[[{"header":{"parameterUnit":"m.s-1","parameterCategory":1,"la1":30.2991,"la2":30.254,"lo1":-89.0895,"lo2":-89.0444,"dy":0.0017,"dx":0.0017,"nx":28,"ny":28,"refTime":"2024-08-06T09:00:00:Z","depth":0,"parameterNumber":2,"parameterNumberName":"U-component_of_WINDS"},"data":[0,0,0,0,0,0,0,0,0,0,0,0,0,0,0,0,0,0,0,0,0,0,0,0,0,0,0,0,0,0,0,0,0,0,0,0,0,0,0,0,0,0,0,0,0,0,0,0,0,0,0,0,0,0,0,0,0,0,2.8154,2.8154,0,2.821,2.821,2.8211,2.8195,2.8194,2.8193,2.8191,2.8252,2.8255,2.8257,0,0,0,0,0,0,0,0,0,0,0,0,0,2.8038,2.804,2.8154,2.8154,2.8155,2.821,2.8211,2.8211,2.8195,2.8194,2.8192,2.8191,2.8251,2.8254,2.8258,0,0,0,0,0,0,0,0,0,0,0,0,0,2.8091,2.8041,2.8154,2.8153,2.8154,2.821,2.8211,2.8212,2.8195,2.8194,2.8192,2.819,2.825,2.8254,2.8258,2.8318,0,0,2.827,2.8272,0,0,0,0,0,0,0,0,2.8088,2.8095,2.8153,2.8154,2.8154,2.8193,2.8192,2.8247,2.8196,2.818,2.8191,2.8189,2.8234,2.8239,2.8254,2.8321,2.8323,2.8271,2.8273,2.8275,2.8276,0,0,0,0,0,0,0,2.8084,2.8093,2.8176,2.8154,2.8155,2.8153,2.8158,2.8202,2.8216,2.8181,2.818,2.8187,2.8234,2.825,2.8255,2.8324,2.8271,2.8274,2.8277,2.8278,2.8449,2.8451,0,0,0,0,0,0,2.8079,2.809,2.8174,2.8178,2.8116,2.8156,2.8162,2.8183,2.8216,2.8219,2.8188,2.8186,2.8244,2.8251,2.8257,2.8334,2.8275,2.8279,2.8281,2.8447,2.845,2.8452,0,0,0,0,0,0,2.8077,2.8087,2.8172,2.8133,2.8144,2.816,2.8183,2.8185,2.82,2.8221,2.8224,2.8201,2.8243,2.8252,2.8304,2.8335,2.8281,2.8284,2.8445,2.8448,2.8451,2.8485,0,0,0,0,0,0,2.8074,2.8086,2.8107,2.8134,2.8146,2.8216,2.8185,2.8187,2.8207,2.8205,2.8234,2.8237,2.8242,2.8298,2.8308,2.834,2.8287,2.8442,2.8446,2.845,2.8481,2.8488,2.8495,0,0,0,0,0,2.807,2.8114,2.8109,2.8119,2.8173,2.8218,2.8225,2.8229,2.8209,2.8233,2.8247,2.8236,2.833,2.8304,2.8315,2.8348,2.844,2.8445,2.845,2.8478,2.8487,2.8495,0,0,0,0,0,0,2.8091,2.8117,2.8112,2.8166,2.819,2.8215,2.8244,2.8238,2.8268,2.8264,2.8269,2.8276,2.8331,2.8344,2.8315,2.8411,2.8383,2.839,2.84,2.8409,2.8416,2.8413,2.8291,0,0,0,0,0,2.8102,2.8135,2.8156,2.8202,2.8215,2.8227,2.8247,2.8248,2.8273,2.8284,2.8301,2.8327,2.8363,2.8387,2.842,2.8482,2.8491,2.8511,2.8518,2.8524,2.8531,2.857,2.8581,2.8468,2.8468,2.8468,0,0,2.8125,2.8143,2.8164,2.8207,2.8226,2.8262,2.8236,2.8274,2.8302,2.829,2.8341,2.8355,2.8385,2.8444,2.8471,2.8457,2.8564,2.853,2.8535,2.8539,2.8576,2.8587,2.8596,2.8471,2.847,2.847,0,0,2.8186,2.8202,2.8244,2.8264,2.8293,2.8301,2.8312,2.8339,2.8348,2.8399,2.8392,2.8426,2.8486,2.851,2.8529,2.8604,2.8598,2.8615,2.8653,2.8691,2.87,2.8708,2.8739,2.8749,2.8621,2.8621,2.8621,0,2.8211,2.8264,2.8266,2.8307,2.8328,2.8319,2.8364,2.8383,2.8422,2.8438,2.8422,2.85,2.8519,2.8586,2.8605,2.8619,2.8635,2.8612,2.8698,2.8706,2.8714,2.8743,2.8754,2.8624,2.8623,2.8623,2.8623,0,2.8296,2.8334,2.8364,2.8403,2.8427,2.847,2.8481,2.8506,2.8506,2.8517,2.8573,2.8596,2.8636,2.8651,2.8651,2.872,2.8711,2.8696,2.8669,2.8727,2.8755,2.8766,2.8627,2.8626,2.8625,2.8625,0,0,2.8372,2.8413,2.8425,2.8444,2.8477,2.8507,2.8551,2.859,2.8613,2.8641,2.8681,2.8734,2.8722,2.8744,2.8747,2.878,2.8843,2.8762,2.8763,2.878,2.8926,2.8939,2.8951,2.8839,2.8841,2.8842,2.8925,0,2.8439,2.8514,2.8519,2.8589,2.8626,2.862,2.8658,2.8684,2.8697,2.8732,2.8746,2.8786,2.8765,2.8779,2.8811,2.8829,2.8873,2.8822,2.8879,2.8881,2.8874,2.8965,2.8978,2.9054,2.8935,2.8937,2.8938,0,2.8526,2.8558,2.8632,2.8664,2.8679,2.8714,2.8753,2.8785,2.8816,2.8824,2.8851,2.885,2.8898,2.8868,2.8937,2.8902,2.8926,2.8939,2.8942,2.8949,2.8915,2.8979,2.9078,2.9091,2.8955,2.8953,2.8952,0,2.8579,2.864,2.8693,2.8709,2.8746,2.8772,2.8789,2.8818,2.8843,2.8877,2.8895,2.8934,2.8957,2.8989,2.9001,2.8976,2.9071,2.904,2.9082,2.9082,2.9104,2.9103,2.9212,2.9114,2.9114,2.9113,2.9113,0,2.8655,2.8701,2.8718,2.8751,2.8804,2.881,2.8864,2.8879,2.8906,2.8945,2.8941,2.8977,2.8988,2.9028,2.9037,2.9096,2.9105,2.9115,2.9118,2.9117,2.9117,2.9134,2.9131,2.9116,2.9116,2.9115,2.9115,0,2.8723,2.8735,2.8793,2.8825,2.8834,2.8872,2.8901,2.8934,2.8947,2.8996,2.9008,2.9029,2.9076,2.909,2.9145,2.9152,2.9222,2.9218,2.9212,2.9213,2.9255,2.9253,2.9382,2.9402,2.9288,2.9289,2.929,0,2.8772,2.8807,2.8843,2.8869,2.8887,2.8927,2.8953,2.8962,2.899,2.903,2.906,2.9106,2.9144,2.9219,2.9241,2.9285,2.9285,2.9327,2.9291,2.9291,2.929,2.9289,2.9295,2.9335,2.9336,2.9337,2.9338,0,2.8859,2.8864,2.8901,2.8942,2.8973,2.9005,2.9036,2.9058,2.9072,2.9104,2.9152,2.9181,2.9239,2.9287,2.9332,2.9353,2.935,2.9349,2.9361,2.9363,2.9359,2.9366,2.9234,2.9346,2.9345,2.9345,2.9344,2.9344,2.8921,2.8955,2.8986,2.9029,2.9054,2.9084,2.9119,2.9137,2.9176,2.9224,2.9227,2.9281,2.9315,2.9376,2.9399,2.9442,2.943,2.9448,2.9453,2.9458,2.9463,2.935,2.945,2.945,2.945,2.945,2.9449,0,2.9012,2.9032,2.9071,2.9116,2.9151,2.9143,2.9179,2.9209,2.9256,2.9287,2.9325,2.9383,2.943,2.9456,2.9504,2.9534,2.9534,2.9547,2.9546,2.9552,2.9469,2.9455,2.9546,2.9546,2.9546,2.9546,2.9546,2.9546,2.9063,2.912,2.913,2.9202,2.9222,2.9274,2.9295,2.9325,2.9351,2.9415,2.9454,2.9471,2.9502,2.9553,2.9597,2.9604,2.9623,2.9638,2.9644,2.9567,2.9557,2.9548,2.9535,2.9641,2.9641,2.9724,2.9724,2.9725]},{"header":{"parameterUnit":"m.s-1","parameterCategory":1,"la1":30.2991,"la2":30.254,"lo1":-89.0895,"lo2":-89.0444,"dy":0.0017,"dx":0.0017,"nx":28,"ny":28,"refTime":"2024-08-06T09:00:00:Z","depth":0,"parameterNumber":3,"parameterNumberName":"V-component_of_WINDS"},"data":[0,0,0,0,0,0,0,0,0,0,0,0,0,0,0,0,0,0,0,0,0,0,0,0,0,0,0,0,0,0,0,0,0,0,0,0,0,0,0,0,0,0,0,0,0,0,0,0,0,0,0,0,0,0,0,0,0,0,-0.5957,-0.5955,0,-0.5758,-0.5756,-0.5753,-0.5761,-0.5764,-0.5766,-0.5769,-0.5561,-0.5553,-0.5545,0,0,0,0,0,0,0,0,0,0,0,0,0,-0.6342,-0.6335,-0.5957,-0.5955,-0.5952,-0.5758,-0.5756,-0.5753,-0.576,-0.5764,-0.5767,-0.577,-0.5563,-0.5554,-0.5544,0,0,0,0,0,0,0,0,0,0,0,0,0,-0.6162,-0.6332,-0.5958,-0.5933,-0.5928,-0.5759,-0.5755,-0.5752,-0.576,-0.5764,-0.5768,-0.5772,-0.5567,-0.5555,-0.5543,-0.5383,0,0,-0.5505,-0.55,0,0,0,0,0,0,0,0,-0.6172,-0.6148,-0.5939,-0.5934,-0.5929,-0.5789,-0.5815,-0.5628,-0.5759,-0.5824,-0.5769,-0.5774,-0.5633,-0.5615,-0.5569,-0.5374,-0.5365,-0.5504,-0.5497,-0.5491,-0.5488,0,0,0,0,0,0,0,-0.6184,-0.6156,-0.5878,-0.5936,-0.593,-0.5931,-0.591,-0.5779,-0.5707,-0.5818,-0.5818,-0.5795,-0.5631,-0.558,-0.5564,-0.5362,-0.5504,-0.5494,-0.5486,-0.5481,-0.503,-0.5025,0,0,0,0,0,0,-0.6203,-0.6167,-0.5884,-0.5872,-0.6063,-0.592,-0.5897,-0.5829,-0.5708,-0.5694,-0.5792,-0.5796,-0.5599,-0.5578,-0.5557,-0.5365,-0.5492,-0.548,-0.5473,-0.5034,-0.5029,-0.5024,0,0,0,0,0,0,-0.6211,-0.6177,-0.5893,-0.6019,-0.5983,-0.5909,-0.5833,-0.5823,-0.5773,-0.5688,-0.5675,-0.5753,-0.5602,-0.5574,-0.5428,-0.5358,-0.5475,-0.5463,-0.504,-0.5033,-0.5026,-0.4978,0,0,0,0,0,0,-0.6222,-0.618,-0.6119,-0.6018,-0.5976,-0.5767,-0.5829,-0.5816,-0.5752,-0.5756,-0.5649,-0.5635,-0.5603,-0.5446,-0.5415,-0.5343,-0.5454,-0.5046,-0.5037,-0.5028,-0.4986,-0.4971,-0.4958,0,0,0,0,0,-0.6236,-0.6112,-0.6116,-0.6082,-0.5899,-0.5763,-0.5739,-0.5706,-0.5747,-0.5685,-0.5631,-0.5639,-0.537,-0.5431,-0.5397,-0.5319,-0.505,-0.5039,-0.5029,-0.4992,-0.4974,-0.4958,0,0,0,0,0,0,-0.6204,-0.6098,-0.6101,-0.5941,-0.5862,-0.5765,-0.5685,-0.5686,-0.5592,-0.5599,-0.556,-0.5536,-0.539,-0.534,-0.5409,-0.5161,-0.5215,-0.5198,-0.5199,-0.5181,-0.5167,-0.5182,-0.5444,0,0,0,0,0,-0.6179,-0.6078,-0.5991,-0.5858,-0.5818,-0.5759,-0.5698,-0.568,-0.5595,-0.556,-0.5496,-0.5412,-0.531,-0.5242,-0.5142,-0.4979,-0.4957,-0.4909,-0.4895,-0.4884,-0.4869,-0.4782,-0.4761,-0.4989,-0.4989,-0.499,0,0,-0.6124,-0.6054,-0.5993,-0.585,-0.5786,-0.5683,-0.573,-0.5618,-0.5541,-0.5543,-0.5402,-0.5352,-0.5256,-0.5102,-0.503,-0.5055,-0.4801,-0.487,-0.4862,-0.4853,-0.4769,-0.4747,-0.4728,-0.4982,-0.4983,-0.4985,0,0,-0.5974,-0.591,-0.5794,-0.573,-0.5634,-0.5596,-0.5568,-0.5471,-0.5439,-0.5298,-0.5298,-0.5206,-0.5029,-0.4962,-0.4904,-0.4733,-0.4737,-0.4701,-0.4627,-0.4543,-0.4525,-0.4509,-0.445,-0.4429,-0.4687,-0.4687,-0.4687,0,-0.5918,-0.5764,-0.5734,-0.5622,-0.556,-0.556,-0.5443,-0.5382,-0.5257,-0.5214,-0.5244,-0.5025,-0.496,-0.4791,-0.475,-0.4703,-0.4671,-0.4713,-0.453,-0.4514,-0.4498,-0.4442,-0.4419,-0.4683,-0.4684,-0.4684,-0.4684,0,-0.5702,-0.5595,-0.5513,-0.5396,-0.5325,-0.521,-0.5163,-0.5094,-0.5083,-0.5042,-0.49,-0.4823,-0.4709,-0.4668,-0.4654,-0.4498,-0.4517,-0.4539,-0.4593,-0.4474,-0.442,-0.4398,-0.4678,-0.4679,-0.468,-0.4681,0,0,-0.5523,-0.5394,-0.5364,-0.5313,-0.5209,-0.5125,-0.5012,-0.4904,-0.4847,-0.4761,-0.4666,-0.4519,-0.454,-0.4475,-0.4454,-0.438,-0.4253,-0.4412,-0.4409,-0.4386,-0.4079,-0.4064,-0.4039,-0.4255,-0.4251,-0.4248,-0.4088,0,-0.5363,-0.5164,-0.5136,-0.496,-0.4862,-0.4863,-0.4765,-0.469,-0.465,-0.4561,-0.4515,-0.4412,-0.4447,-0.4408,-0.4335,-0.4284,-0.4191,-0.4295,-0.4167,-0.4163,-0.4192,-0.401,-0.3993,-0.3846,-0.4066,-0.4062,-0.406,0,-0.5149,-0.5062,-0.4877,-0.479,-0.4748,-0.466,-0.4561,-0.4475,-0.4392,-0.4367,-0.4297,-0.4287,-0.4171,-0.423,-0.4071,-0.4142,-0.4089,-0.4056,-0.4049,-0.4037,-0.4105,-0.3994,-0.3797,-0.3776,-0.4026,-0.4029,-0.4031,0,-0.504,-0.4876,-0.4745,-0.4701,-0.4595,-0.4534,-0.4487,-0.4407,-0.4345,-0.4258,-0.4217,-0.4116,-0.4061,-0.3984,-0.3947,-0.3993,-0.379,-0.3846,-0.3768,-0.3769,-0.3725,-0.3728,-0.3518,-0.3688,-0.3689,-0.3689,-0.369,0,-0.4864,-0.4752,-0.4696,-0.4615,-0.449,-0.4458,-0.4335,-0.429,-0.422,-0.4131,-0.4125,-0.4041,-0.3997,-0.3908,-0.3878,-0.3752,-0.3726,-0.3704,-0.3698,-0.3705,-0.3708,-0.367,-0.3679,-0.3683,-0.3685,-0.3686,-0.3687,0,-0.4721,-0.4678,-0.4537,-0.445,-0.4425,-0.4337,-0.4263,-0.4185,-0.4147,-0.4035,-0.4007,-0.3946,-0.384,-0.3796,-0.3665,-0.3646,-0.3502,-0.3502,-0.3531,-0.3529,-0.3454,-0.3462,-0.3213,-0.3179,-0.337,-0.3369,-0.3367,0,-0.4612,-0.4526,-0.4432,-0.4373,-0.4325,-0.423,-0.4168,-0.4134,-0.4069,-0.397,-0.3905,-0.38,-0.3714,-0.3546,-0.349,-0.3391,-0.339,-0.331,-0.3375,-0.3387,-0.3391,-0.3398,-0.339,-0.3298,-0.3296,-0.3294,-0.3293,0,-0.4424,-0.4409,-0.432,-0.4225,-0.4152,-0.4074,-0.3999,-0.3951,-0.3906,-0.3834,-0.3727,-0.3661,-0.3531,-0.3427,-0.3326,-0.3277,-0.3278,-0.3273,-0.325,-0.3257,-0.3278,-0.3268,-0.35,-0.3279,-0.328,-0.3281,-0.3282,-0.3283,-0.4296,-0.4221,-0.4144,-0.4047,-0.3987,-0.3918,-0.3842,-0.3796,-0.3707,-0.36,-0.3585,-0.3472,-0.3394,-0.3258,-0.3206,-0.3117,-0.3137,-0.3103,-0.3095,-0.3087,-0.3084,-0.3292,-0.3098,-0.3098,-0.3099,-0.3099,-0.3099,0,-0.411,-0.4062,-0.3972,-0.3869,-0.3793,-0.3802,-0.372,-0.3656,-0.3557,-0.3485,-0.3402,-0.3281,-0.3182,-0.312,-0.302,-0.2962,-0.296,-0.2937,-0.2941,-0.293,-0.307,-0.3101,-0.294,-0.294,-0.294,-0.294,-0.294,-0.294,-0.4004,-0.388,-0.3855,-0.3702,-0.3654,-0.3545,-0.3498,-0.3434,-0.3377,-0.3243,-0.3162,-0.3123,-0.3055,-0.2951,-0.2861,-0.2846,-0.281,-0.2786,-0.2772,-0.2903,-0.292,-0.2936,-0.2965,-0.2778,-0.2778,-0.264,-0.2638,-0.2637]}]]